ICEYE-X16

导读 | 豆包AI

ICEYE-X16是芬兰商业地球观测公司ICEYE的合成孔径雷达卫星,于2022年1月13日发射入轨,属于全球最大SAR卫星星座的组成部分。该卫星运行于太阳同步轨道,搭载X波段有源相控阵雷达传感器,可在任何光照、气象条件下全天候获取高分辨率地表影像,为政府及商业客户提供近实时的精准地理空间数据,服务于灾害监测、资源勘探等多个领域。

基本信息
目录编号:
51008
目录名称:
ICEYE-X16
国际标识:
2022-002AA
轨道中心:
EARTH
卫星名称:
ICEYE-X16
卫星全名:
--
卫星状态:
已陨落 最后检测时间 2024-09-16
发射日期:
2022-01-13 UTC
国别 :
(FI)
星等 :
--
轨道信息
数据来源 国际轨道数据
星历时间: 2024-09-16T22:08:34+0800
轨道信息已过期564天
半长轴: 6529.803km
偏心率: 0.0011843
轨道倾角: 97.346°
近地点辐角 267.605°
升交点赤经 339.246°
平近点角 92.389°
近地点: 143.934km
远地点: 159.402km
周期: 87.521分钟
每日圈数: 16.453286
详细信息
使用方式:
暂无